"datetime","temp","dp","rain_mm","uv","mb"
"2015-03-26 00:00:00","-0.2","-0.8",0.0,0.0,1008.6
"2015-03-26 00:01:00","-0.2","-0.7",0.0,0.0,1008.6
"2015-03-26 00:02:00","-0.2","-0.7",0.0,0.0,1008.6
"2015-03-26 00:03:00","-0.2","-0.7",0.0,0.0,1008.6
"2015-03-26 00:04:00","-0.2","-0.8",0.0,0.0,1008.5
"2015-03-26 00:05:00","-0.3","-0.8",0.0,0.0,1008.5
"2015-03-26 00:06:00","-0.3","-0.8",0.0,0.0,1008.5
"2015-03-26 00:07:00","-0.3","-0.8",0.0,0.0,1008.5
"2015-03-26 00:08:00","-0.3","-0.8",0.0,0.0,1008.5
"2015-03-26 00:09:00","-0.3","-0.8",0.0,0.0,1008.5
"2015-03-26 00:10:00","-0.3","-0.8",0.0,0.0,1008.5
"2015-03-26 00:11:00","-0.3","-0.8",0.0,0.0,1008.5
"2015-03-26 00:12:00","-0.2","-0.8",0.0,0.0,1008.5
"2015-03-26 00:13:00","-0.2","-0.8",0.0,0.0,1008.5
"2015-03-26 00:14:00","-0.2","-0.8",0.0,0.0,1008.5
"2015-03-26 00:15:00","-0.2","-0.7",0.0,0.0,1008.4
"2015-03-26 00:16:00","-0.2","-0.7",0.0,0.0,1008.4
"2015-03-26 00:17:00","-0.1","-0.7",0.0,0.0,1008.4
"2015-03-26 00:18:00","-0.1","-0.6",0.0,0.0,1008.4
"2015-03-26 00:19:00","-0.1","-0.6",0.0,0.0,1008.4
"2015-03-26 00:20:00","-0.1","-0.6",0.0,0.0,1008.3
"2015-03-26 00:21:00","-0.1","-0.6",0.0,0.0,1008.3
"2015-03-26 00:22:00","-0.1","-0.6",0.0,0.0,1008.3
"2015-03-26 00:23:00","-0.1","-0.6",0.0,0.0,1008.3
"2015-03-26 00:24:00",0.0,"-0.6",0.0,0.0,1008.3
"2015-03-26 00:25:00",0.0,"-0.6",0.0,0.0,1008.3
"2015-03-26 00:26:00",0.0,"-0.6",0.0,0.0,1008.3
"2015-03-26 00:27:00",0.1,"-0.5",0.0,0.0,1008.3
"2015-03-26 00:28:00",0.1,"-0.5",0.0,0.0,1008.3
"2015-03-26 00:29:00",0.1,"-0.5",0.0,0.0,1008.2
"2015-03-26 00:30:00",0.1,"-0.5",0.0,0.0,1008.2
"2015-03-26 00:31:00",0.1,"-0.5",0.0,0.0,1008.1
"2015-03-26 00:32:00",0.1,"-0.5",0.0,0.0,1008.1
"2015-03-26 00:33:00",0.1,"-0.5",0.0,0.0,1008.1
"2015-03-26 00:34:00",0.1,"-0.5",0.0,0.0,1008.1
"2015-03-26 00:35:00",0.1,"-0.5",0.0,0.0,1008.1
"2015-03-26 00:36:00",0.1,"-0.5",0.0,0.0,1008.1
"2015-03-26 00:37:00",0.1,"-0.4",0.0,0.0,1008.1
"2015-03-26 00:38:00",0.2,"-0.4",0.0,0.0,1008.1
"2015-03-26 00:39:00",0.2,"-0.4",0.0,0.0,1008.0
"2015-03-26 00:40:00",0.2,"-0.3",0.0,0.0,1008.0
"2015-03-26 00:41:00",0.2,"-0.3",0.0,0.0,1008.0
"2015-03-26 00:42:00",0.3,"-0.3",0.0,0.0,1008.0
"2015-03-26 00:43:00",0.3,"-0.3",0.0,0.0,1008.0
"2015-03-26 00:44:00",0.3,"-0.3",0.0,0.0,1008.0
"2015-03-26 00:45:00",0.3,"-0.3",0.0,0.0,1007.9
"2015-03-26 00:46:00",0.3,"-0.3",0.0,0.0,1007.9
"2015-03-26 00:47:00",0.3,"-0.3",0.0,0.0,1007.9
"2015-03-26 00:48:00",0.3,"-0.3",0.0,0.0,1007.9
"2015-03-26 00:49:00",0.3,"-0.3",0.0,0.0,1007.9
"2015-03-26 00:50:00",0.3,"-0.3",0.0,0.0,1007.8
"2015-03-26 00:51:00",0.3,"-0.2",0.0,0.0,1007.8
"2015-03-26 00:52:00",0.3,"-0.2",0.0,0.0,1007.8
"2015-03-26 00:53:00",0.3,"-0.2",0.0,0.0,1007.8
"2015-03-26 00:54:00",0.4,"-0.2",0.0,0.0,1007.8
"2015-03-26 00:55:00",0.4,"-0.1",0.0,0.0,1007.8
"2015-03-26 00:56:00",0.4,"-0.1",0.0,0.0,1007.8
"2015-03-26 00:57:00",0.5,"-0.1",0.0,0.0,1007.8
"2015-03-26 00:58:00",0.5,"-0.1",0.0,0.0,1007.7
"2015-03-26 00:59:00",0.6,0.0,0.0,0.0,1007.7
"2015-03-26 01:00:00",0.6,0.0,0.0,0.0,1007.7
"2015-03-26 01:01:00",0.6,0.0,0.0,0.0,1007.7
"2015-03-26 01:02:00",0.6,0.1,0.0,0.0,1007.7
"2015-03-26 01:03:00",0.7,0.1,0.0,0.0,1007.7
"2015-03-26 01:04:00",0.7,0.1,0.0,0.0,1007.6
"2015-03-26 01:05:00",0.7,0.1,0.0,0.0,1007.6
"2015-03-26 01:06:00",0.7,0.2,0.0,0.0,1007.6
"2015-03-26 01:07:00",0.8,0.2,0.0,0.0,1007.6
"2015-03-26 01:08:00",0.8,0.2,0.0,0.0,1007.5
"2015-03-26 01:09:00",0.8,0.3,0.0,0.0,1007.5
"2015-03-26 01:10:00",0.9,0.3,0.0,0.0,1007.5
"2015-03-26 01:11:00",0.9,0.4,0.0,0.0,1007.5
"2015-03-26 01:12:00",1.0,0.4,0.0,0.0,1007.5
"2015-03-26 01:13:00",1.1,0.5,0.0,0.0,1007.4
"2015-03-26 01:14:00",1.2,0.6,0.0,0.0,1007.4
"2015-03-26 01:15:00",1.2,0.6,0.0,0.0,1007.4
"2015-03-26 01:16:00",1.2,0.6,0.0,0.0,1007.4
"2015-03-26 01:17:00",1.2,0.6,0.0,0.0,1007.4
"2015-03-26 01:18:00",1.3,0.7,0.0,0.0,1007.4
"2015-03-26 01:19:00",1.3,0.7,0.0,0.0,1007.4
"2015-03-26 01:20:00",1.4,0.9,0.0,0.0,1007.3
"2015-03-26 01:21:00",1.5,1.1,0.0,0.0,1007.3
"2015-03-26 01:22:00",1.6,1.1,0.0,0.0,1007.3
"2015-03-26 01:23:00",1.6,1.2,0.0,0.0,1007.2
"2015-03-26 01:24:00",1.7,1.1,0.0,0.0,1007.2
"2015-03-26 01:25:00",1.8,1.2,0.0,0.0,1007.2
"2015-03-26 01:26:00",1.8,1.2,0.0,0.0,1007.2
"2015-03-26 01:27:00",1.8,1.2,0.0,0.0,1007.2
"2015-03-26 01:28:00",1.9,1.5,0.0,0.0,1007.1
"2015-03-26 01:29:00",2.0,1.5,0.0,0.0,1007.1
"2015-03-26 01:30:00",2.1,1.5,0.0,0.0,1007.1
"2015-03-26 01:31:00",2.2,1.8,0.0,0.0,1007.0
"2015-03-26 01:32:00",2.3,1.9,0.0,0.0,1007.0
"2015-03-26 01:33:00",2.3,1.9,0.0,0.0,1007.0
"2015-03-26 01:34:00",2.3,1.8,0.0,0.0,1007.0
"2015-03-26 01:35:00",2.4,1.8,0.0,0.0,1006.9
"2015-03-26 01:36:00",2.4,1.9,0.0,0.0,1006.9
"2015-03-26 01:37:00",2.4,1.9,0.0,0.0,1006.9
"2015-03-26 01:38:00",2.5,1.9,0.0,0.0,1006.9
"2015-03-26 01:39:00",2.5,2.0,0.0,0.0,1006.8
"2015-03-26 01:40:00",2.6,2.0,0.0,0.0,1006.8
"2015-03-26 01:41:00",2.6,2.0,0.0,0.0,1006.7
"2015-03-26 01:42:00",2.6,2.1,0.0,0.0,1006.7
"2015-03-26 01:43:00",2.7,2.1,0.0,0.0,1006.7
"2015-03-26 01:44:00",2.8,2.2,0.0,0.0,1006.6
"2015-03-26 01:45:00",2.9,2.3,0.0,0.0,1006.6
"2015-03-26 01:46:00",2.9,2.4,0.0,0.0,1006.5
"2015-03-26 01:47:00",3.0,2.4,0.0,0.0,1006.5
"2015-03-26 01:48:00",3.0,2.4,0.0,0.0,1006.5
"2015-03-26 01:49:00",3.1,2.5,0.0,0.0,1006.5
"2015-03-26 01:50:00",3.2,2.6,0.0,0.0,1006.5
"2015-03-26 01:51:00",3.3,2.7,0.0,0.0,1006.5
"2015-03-26 01:52:00",3.3,2.8,0.0,0.0,1006.4
"2015-03-26 01:53:00",3.5,2.9,0.0,0.0,1006.4
"2015-03-26 01:54:00",3.5,3.0,0.0,0.0,1006.4
"2015-03-26 01:55:00",3.6,3.0,0.0,0.0,1006.3
"2015-03-26 01:56:00",3.6,2.8,0.0,0.0,1006.3
"2015-03-26 01:57:00",3.6,2.8,0.0,0.0,1006.3
"2015-03-26 01:58:00",3.6,2.8,0.0,0.0,1006.2
"2015-03-26 01:59:00",3.6,2.9,0.0,0.0,1006.2
"2015-03-26 02:00:00",3.7,3.0,0.0,0.0,1006.2
"2015-03-26 02:01:00",3.8,3.1,0.0,0.0,1006.2
"2015-03-26 02:02:00",3.8,3.1,0.0,0.0,1006.1
"2015-03-26 02:03:00",3.8,3.1,0.0,0.0,1006.1
"2015-03-26 02:04:00",3.9,3.2,0.0,0.0,1006.1
"2015-03-26 02:05:00",3.9,3.2,0.0,0.0,1006.0
"2015-03-26 02:06:00",3.9,3.1,0.0,0.0,1006.0
"2015-03-26 02:07:00",3.9,3.1,0.0,0.0,1006.0
"2015-03-26 02:08:00",3.9,3.1,0.0,0.0,1006.0
"2015-03-26 02:09:00",3.9,3.1,0.0,0.0,1005.9
"2015-03-26 02:10:00",3.9,3.1,0.0,0.0,1006.0
"2015-03-26 02:11:00",3.9,3.1,0.0,0.0,1006.0
"2015-03-26 02:12:00",3.9,3.1,0.0,0.0,1006.0
"2015-03-26 02:13:00",3.9,3.1,0.0,0.0,1005.9
"2015-03-26 02:14:00",4.0,3.1,0.0,0.0,1006.0
"2015-03-26 02:15:00",4.0,3.3,0.0,0.0,1005.9
"2015-03-26 02:16:00",4.1,3.3,0.0,0.0,1005.8
"2015-03-26 02:17:00",4.1,3.4,0.0,0.0,1005.8
"2015-03-26 02:18:00",4.2,3.4,0.0,0.0,1005.8
"2015-03-26 02:19:00",4.2,3.3,0.0,0.0,1005.7
"2015-03-26 02:20:00",4.2,3.4,0.0,0.0,1005.7
"2015-03-26 02:21:00",4.2,3.5,0.0,0.0,1005.7
"2015-03-26 02:22:00",4.3,3.5,0.0,0.0,1005.7
"2015-03-26 02:23:00",4.3,3.6,0.0,0.0,1005.7
"2015-03-26 02:24:00",4.3,3.5,0.0,0.0,1005.7
"2015-03-26 02:25:00",4.4,3.5,0.0,0.0,1005.6
"2015-03-26 02:26:00",4.4,3.5,0.0,0.0,1005.6
"2015-03-26 02:27:00",4.4,3.5,0.0,0.0,1005.6
"2015-03-26 02:28:00",4.4,3.5,0.0,0.0,1005.6
"2015-03-26 02:29:00",4.4,3.5,0.0,0.0,1005.5
"2015-03-26 02:30:00",4.3,3.5,0.0,0.0,1005.5
"2015-03-26 02:31:00",4.3,3.5,0.0,0.0,1005.5
"2015-03-26 02:32:00",4.3,3.5,0.0,0.0,1005.5
"2015-03-26 02:33:00",4.3,3.5,0.0,0.0,1005.5
"2015-03-26 02:34:00",4.4,3.5,0.0,0.0,1005.5
"2015-03-26 02:35:00",4.4,3.5,0.0,0.0,1005.4
"2015-03-26 02:36:00",4.4,3.6,0.0,0.0,1005.4
"2015-03-26 02:37:00",4.4,3.6,0.0,0.0,1005.4
"2015-03-26 02:38:00",4.5,3.6,0.0,0.0,1005.4
"2015-03-26 02:39:00",4.5,3.6,0.0,0.0,1005.3
"2015-03-26 02:40:00",4.5,3.7,0.0,0.0,1005.3
"2015-03-26 02:41:00",4.6,3.7,0.0,0.0,1005.3
"2015-03-26 02:42:00",4.6,3.7,0.0,0.0,1005.3
"2015-03-26 02:43:00",4.7,3.8,0.0,0.0,1005.3
"2015-03-26 02:44:00",4.7,3.8,0.0,0.0,1005.3
"2015-03-26 02:45:00",4.7,3.8,0.0,0.0,1005.2
"2015-03-26 02:46:00",4.7,3.8,0.0,0.0,1005.2
"2015-03-26 02:47:00",4.7,3.8,0.0,0.0,1005.2
"2015-03-26 02:48:00",4.8,3.9,0.0,0.0,1005.1
"2015-03-26 02:49:00",4.8,3.9,0.0,0.0,1005.1
"2015-03-26 02:50:00",4.8,3.9,0.0,0.0,1005.1
"2015-03-26 02:51:00",4.8,3.9,0.0,0.0,1005.0
"2015-03-26 02:52:00",4.8,3.9,0.0,0.0,1005.0
"2015-03-26 02:53:00",4.8,3.9,0.0,0.0,1004.9
"2015-03-26 02:54:00",4.8,3.9,0.0,0.0,1004.9
"2015-03-26 02:55:00",4.8,3.9,0.0,0.0,1004.8
"2015-03-26 02:56:00",4.8,3.9,0.0,0.0,1004.8
"2015-03-26 02:57:00",4.8,3.9,0.0,0.0,1004.8
"2015-03-26 02:58:00",4.8,3.9,0.0,0.0,1004.9
"2015-03-26 02:59:00",4.8,3.9,0.0,0.0,1004.9
"2015-03-26 03:00:00",4.8,3.9,0.0,0.0,1004.8
"2015-03-26 03:01:00",4.8,3.9,0.0,0.0,1004.8
"2015-03-26 03:02:00",4.8,3.9,0.0,0.0,1004.8
"2015-03-26 03:03:00",4.9,4.0,0.0,0.0,1004.7
"2015-03-26 03:04:00",4.9,4.0,0.0,0.0,1004.7
"2015-03-26 03:05:00",4.9,4.0,0.0,0.0,1004.7
"2015-03-26 03:06:00",4.9,4.0,0.0,0.0,1004.7
"2015-03-26 03:07:00",4.9,4.1,0.0,0.0,1004.7
"2015-03-26 03:08:00",4.9,4.1,0.0,0.0,1004.6
"2015-03-26 03:09:00",5.0,4.1,0.0,0.0,1004.6
"2015-03-26 03:10:00",5.0,4.1,0.0,0.0,1004.6
"2015-03-26 03:11:00",5.1,4.2,0.2,0.0,1004.5
"2015-03-26 03:12:00",5.1,4.2,0.2,0.0,1004.5
"2015-03-26 03:13:00",5.1,4.1,0.2,0.0,1004.5
"2015-03-26 03:14:00",5.1,4.1,0.2,0.0,1004.5
"2015-03-26 03:15:00",5.2,4.1,0.2,0.0,1004.5
"2015-03-26 03:16:00",5.2,4.1,0.2,0.0,1004.4
"2015-03-26 03:17:00",5.2,4.1,0.2,0.0,1004.4
"2015-03-26 03:18:00",5.2,4.1,0.2,0.0,1004.4
"2015-03-26 03:19:00",5.2,4.1,0.2,0.0,1004.4
"2015-03-26 03:20:00",5.2,4.1,0.2,0.0,1004.4
"2015-03-26 03:21:00",5.2,4.0,0.2,0.0,1004.4
"2015-03-26 03:22:00",5.1,3.9,0.2,0.0,1004.4
"2015-03-26 03:23:00",5.2,4.0,0.2,0.0,1004.4
"2015-03-26 03:24:00",5.2,4.0,0.2,0.0,1004.4
"2015-03-26 03:25:00",5.2,3.8,0.2,0.0,1004.4
"2015-03-26 03:26:00",5.2,3.8,0.2,0.0,1004.4
"2015-03-26 03:27:00",5.2,3.7,0.2,0.0,1004.3
"2015-03-26 03:28:00",5.2,3.8,0.2,0.0,1004.3
"2015-03-26 03:29:00",5.2,3.8,0.2,0.0,1004.3
"2015-03-26 03:30:00",5.2,3.8,0.2,0.0,1004.4
"2015-03-26 03:31:00",5.2,3.7,0.2,0.0,1004.3
"2015-03-26 03:32:00",5.2,3.7,0.2,0.0,1004.3
"2015-03-26 03:33:00",5.1,3.6,0.2,0.0,1004.4
"2015-03-26 03:34:00",5.1,3.8,0.2,0.0,1004.4
"2015-03-26 03:35:00",5.1,3.7,0.2,0.0,1004.3
"2015-03-26 03:36:00",5.0,3.7,0.2,0.0,1004.3
"2015-03-26 03:37:00",5.0,3.6,0.4,0.0,1004.3
"2015-03-26 03:38:00",4.9,3.6,0.4,0.0,1004.2
"2015-03-26 03:39:00",4.9,3.7,0.4,0.0,1004.3
"2015-03-26 03:40:00",4.8,3.6,0.4,0.0,1004.2
"2015-03-26 03:41:00",4.8,3.6,0.4,0.0,1004.2
"2015-03-26 03:42:00",4.7,3.5,0.4,0.0,1004.2
"2015-03-26 03:43:00",4.7,3.5,0.4,0.0,1004.2
"2015-03-26 03:44:00",4.7,3.5,0.4,0.0,1004.2
"2015-03-26 03:45:00",4.6,3.4,0.4,0.0,1004.2
"2015-03-26 03:46:00",4.6,3.5,0.4,0.0,1004.1
"2015-03-26 03:47:00",4.5,3.3,0.4,0.0,1004.1
"2015-03-26 03:48:00",4.5,3.5,0.4,0.0,1004.2
"2015-03-26 03:49:00",4.5,3.5,0.4,0.0,1004.1
"2015-03-26 03:50:00",4.5,3.4,0.4,0.0,1004.1
"2015-03-26 03:51:00",4.4,3.4,0.4,0.0,1004.1
"2015-03-26 03:52:00",4.4,3.4,0.4,0.0,1004.1
"2015-03-26 03:53:00",4.4,3.4,0.4,0.0,1004.1
"2015-03-26 03:54:00",4.4,3.4,0.4,0.0,1004.1
"2015-03-26 03:55:00",4.4,3.4,0.4,0.0,1004.2
"2015-03-26 03:56:00",4.4,3.2,0.4,0.0,1004.1
"2015-03-26 03:57:00",4.4,3.4,0.4,0.0,1004.1
"2015-03-26 03:58:00",4.4,3.2,0.4,0.0,1004.0
"2015-03-26 03:59:00",4.4,3.2,0.4,0.0,1004.1
"2015-03-26 04:00:00",4.4,3.2,0.6,0.0,1004.0
"2015-03-26 04:01:00",4.4,3.2,0.6,0.0,1004.0
"2015-03-26 04:02:00",4.4,3.2,0.6,0.0,1003.9
"2015-03-26 04:03:00",4.4,3.2,0.6,0.0,1003.9
"2015-03-26 04:04:00",4.4,3.2,0.6,0.0,1003.9
"2015-03-26 04:05:00",4.4,3.2,0.6,0.0,1003.9
"2015-03-26 04:06:00",4.3,3.1,0.6,0.0,1003.9
"2015-03-26 04:07:00",4.3,3.1,0.6,0.0,1003.9
"2015-03-26 04:08:00",4.3,3.1,0.6,0.0,1003.8
"2015-03-26 04:09:00",4.3,3.1,0.6,0.0,1003.8
"2015-03-26 04:10:00",4.2,3.1,0.6,0.0,1003.8
"2015-03-26 04:11:00",4.2,3.0,0.6,0.0,1003.8
"2015-03-26 04:12:00",4.2,3.0,0.6,0.0,1003.8
"2015-03-26 04:13:00",4.2,3.0,0.8,0.0,1003.8
"2015-03-26 04:14:00",4.2,3.0,0.8,0.0,1003.7
"2015-03-26 04:15:00",4.2,3.0,0.8,0.0,1003.7
"2015-03-26 04:16:00",4.1,2.9,0.8,0.0,1003.7
"2015-03-26 04:17:00",4.1,2.9,0.8,0.0,1003.7
"2015-03-26 04:18:00",4.1,2.9,0.8,0.0,1003.6
"2015-03-26 04:19:00",4.1,3.0,0.8,0.0,1003.6
"2015-03-26 04:20:00",4.1,3.0,0.8,0.0,1003.6
"2015-03-26 04:21:00",4.0,3.0,0.8,0.0,1003.6
"2015-03-26 04:22:00",4.0,3.0,0.8,0.0,1003.6
"2015-03-26 04:23:00",4.0,3.0,0.8,0.0,1003.6
"2015-03-26 04:24:00",4.0,2.9,0.8,0.0,1003.6
"2015-03-26 04:25:00",3.9,2.9,0.8,0.0,1003.5
"2015-03-26 04:26:00",3.9,2.9,0.8,0.0,1003.5
"2015-03-26 04:27:00",3.9,2.9,0.8,0.0,1003.4
"2015-03-26 04:28:00",3.9,2.9,0.8,0.0,1003.4
"2015-03-26 04:29:00",3.9,2.9,0.8,0.0,1003.4
"2015-03-26 04:30:00",3.9,2.9,0.8,0.0,1003.5
"2015-03-26 04:31:00",4.0,3.0,0.8,0.0,1003.4
"2015-03-26 04:32:00",4.0,3.0,0.8,0.0,1003.4
"2015-03-26 04:33:00",4.0,3.0,0.8,0.0,1003.3
"2015-03-26 04:34:00",4.0,3.0,1.0,0.0,1003.3
"2015-03-26 04:35:00",4.0,3.0,1.0,0.0,1003.3
"2015-03-26 04:36:00",4.0,3.0,1.0,0.0,1003.3
"2015-03-26 04:37:00",4.0,3.0,1.0,0.0,1003.2
"2015-03-26 04:38:00",4.0,3.0,1.0,0.0,1003.2
"2015-03-26 04:39:00",4.0,3.0,1.0,0.0,1003.3
"2015-03-26 04:40:00",4.0,3.0,1.0,0.0,1003.2
"2015-03-26 04:41:00",4.0,3.0,1.2,0.0,1003.2
"2015-03-26 04:42:00",4.0,3.0,1.2,0.0,1003.2
"2015-03-26 04:43:00",4.0,3.1,1.2,0.0,1003.2
"2015-03-26 04:44:00",4.0,3.1,1.2,0.0,1003.2
"2015-03-26 04:45:00",3.9,3.1,1.2,0.0,1003.2
"2015-03-26 04:46:00",3.9,3.1,1.2,0.0,1003.1
"2015-03-26 04:47:00",3.9,3.1,1.2,0.0,1003.1
"2015-03-26 04:48:00",3.9,3.1,1.2,0.0,1003.1
"2015-03-26 04:49:00",3.9,3.1,1.2,0.0,1003.1
"2015-03-26 04:50:00",3.9,3.0,1.2,0.0,1003.1
"2015-03-26 04:51:00",3.9,3.0,1.2,0.0,1003.0
"2015-03-26 04:52:00",3.9,3.0,1.2,0.0,1003.0
"2015-03-26 04:53:00",3.9,3.0,1.4,0.0,1002.9
"2015-03-26 04:54:00",3.9,3.0,1.4,0.0,1003.0
"2015-03-26 04:55:00",3.9,3.0,1.4,0.0,1003.0
"2015-03-26 04:56:00",3.9,3.0,1.4,0.0,1002.9
"2015-03-26 04:57:00",3.9,3.0,1.4,0.0,1002.9
"2015-03-26 04:58:00",3.9,3.0,1.4,0.0,1002.9
"2015-03-26 04:59:00",3.8,3.0,1.4,0.0,1003.0
"2015-03-26 05:00:00",3.8,3.0,1.6,0.0,1002.9
"2015-03-26 05:01:00",3.8,3.0,1.6,0.0,1002.9
"2015-03-26 05:02:00",3.8,3.0,1.6,0.0,1002.8
"2015-03-26 05:03:00",3.8,3.0,1.6,0.0,1002.8
"2015-03-26 05:04:00",3.8,3.0,1.6,0.0,1002.8
"2015-03-26 05:05:00",3.8,3.0,1.6,0.0,1002.8
"2015-03-26 05:06:00",3.8,3.0,1.6,0.0,1002.8
"2015-03-26 05:07:00",3.8,3.0,1.6,0.0,1002.7
"2015-03-26 05:08:00",3.8,3.0,1.6,0.0,1002.6
"2015-03-26 05:09:00",3.8,3.0,1.6,0.0,1002.6
"2015-03-26 05:10:00",3.8,3.0,1.6,0.0,1002.6
"2015-03-26 05:11:00",3.8,3.1,1.6,0.0,1002.6
"2015-03-26 05:12:00",3.8,2.9,1.6,0.0,1002.6
"2015-03-26 05:13:00",3.8,2.9,1.6,0.0,1002.5
"2015-03-26 05:14:00",3.8,2.9,1.6,0.0,1002.5
"2015-03-26 05:15:00",3.8,3.1,1.6,0.0,1002.5
"2015-03-26 05:16:00",3.8,3.1,1.8,0.0,1002.5
"2015-03-26 05:17:00",3.8,3.1,1.8,0.0,1002.5
"2015-03-26 05:18:00",3.8,3.1,1.8,0.0,1002.4
"2015-03-26 05:19:00",3.8,3.1,1.8,0.0,1002.4
"2015-03-26 05:20:00",3.8,3.1,1.8,0.0,1002.4
"2015-03-26 05:21:00",3.8,3.1,1.8,0.0,1002.4
"2015-03-26 05:22:00",3.8,3.1,1.8,0.0,1002.3
"2015-03-26 05:23:00",3.9,3.1,1.8,0.0,1002.3
"2015-03-26 05:24:00",3.9,3.1,1.8,0.0,1002.3
"2015-03-26 05:25:00",3.9,3.2,2.0,0.0,1002.3
"2015-03-26 05:26:00",3.9,3.2,2.0,0.0,1002.3
"2015-03-26 05:27:00",3.9,3.2,2.0,0.0,1002.3
"2015-03-26 05:28:00",3.9,3.2,2.0,0.0,1002.3
"2015-03-26 05:29:00",3.9,3.2,2.0,0.0,1002.3
"2015-03-26 05:30:00",3.9,3.2,2.0,0.0,1002.2
"2015-03-26 05:31:00",3.9,3.2,2.0,0.0,1002.2
"2015-03-26 05:32:00",3.9,3.2,2.0,0.0,1002.2
"2015-03-26 05:33:00",3.9,3.2,2.0,0.0,1002.2
"2015-03-26 05:34:00",3.9,3.2,2.0,0.0,1002.2
"2015-03-26 05:35:00",3.9,3.2,2.0,0.0,1002.2
"2015-03-26 05:36:00",3.9,3.2,2.0,0.0,1002.2
"2015-03-26 05:37:00",4.0,3.2,2.0,0.0,1002.2
"2015-03-26 05:38:00",4.0,3.2,2.2,0.0,1002.2
"2015-03-26 05:39:00",4.0,3.3,2.2,0.0,1002.2
"2015-03-26 05:40:00",4.0,3.3,2.2,0.0,1002.2
"2015-03-26 05:41:00",4.0,3.3,2.2,0.0,1002.2
"2015-03-26 05:42:00",4.0,3.3,2.2,0.0,1002.2
"2015-03-26 05:43:00",4.0,3.3,2.2,0.0,1002.1
"2015-03-26 05:44:00",4.1,3.3,2.2,0.0,1002.1
"2015-03-26 05:45:00",4.1,3.3,2.4,0.0,1002.1
"2015-03-26 05:46:00",4.0,3.3,2.4,0.0,1002.1
"2015-03-26 05:47:00",4.1,3.3,2.4,0.0,1002.1
"2015-03-26 05:48:00",4.1,3.3,2.4,0.0,1002.0
"2015-03-26 05:49:00",4.1,3.3,2.4,0.0,1002.0
"2015-03-26 05:50:00",4.1,3.3,2.4,0.0,1002.0
"2015-03-26 05:51:00",4.1,3.3,2.4,0.0,1002.0
"2015-03-26 05:52:00",4.1,3.3,2.4,0.0,1002.0
"2015-03-26 05:53:00",4.1,3.3,2.4,0.0,1002.0
"2015-03-26 05:54:00",4.1,3.3,2.4,0.0,1002.0
"2015-03-26 05:55:00",4.1,3.3,2.4,0.0,1001.9
"2015-03-26 05:56:00",4.1,3.3,2.4,0.0,1001.9
"2015-03-26 05:57:00",4.1,3.3,2.4,0.0,1001.8
"2015-03-26 05:58:00",4.0,3.3,2.4,0.0,1001.8
"2015-03-26 05:59:00",4.0,3.3,2.4,0.0,1001.8
"2015-03-26 06:00:00",4.0,3.3,2.4,0.0,1001.9
"2015-03-26 06:01:00",4.1,3.3,2.4,0.0,1001.9
"2015-03-26 06:02:00",4.1,3.3,2.4,0.0,1001.8
"2015-03-26 06:03:00",4.1,3.3,2.4,0.0,1001.7
"2015-03-26 06:04:00",4.1,3.3,2.4,0.0,1001.8
"2015-03-26 06:05:00",4.1,3.3,2.4,0.0,1001.8
"2015-03-26 06:06:00",4.1,3.3,2.4,0.0,1001.8
"2015-03-26 06:07:00",4.1,3.3,2.4,0.0,1001.7
"2015-03-26 06:08:00",4.1,3.4,2.4,0.0,1001.8
"2015-03-26 06:09:00",4.1,3.5,2.4,0.0,1001.8
"2015-03-26 06:10:00",4.1,3.5,2.6,0.0,1001.7
"2015-03-26 06:11:00",4.1,3.5,2.6,0.0,1001.7
"2015-03-26 06:12:00",4.1,3.6,2.6,0.0,1001.6
"2015-03-26 06:13:00",4.2,3.6,2.6,0.0,1001.7
"2015-03-26 06:14:00",4.2,3.6,2.6,0.0,1001.6
"2015-03-26 06:15:00",4.2,3.6,2.6,0.0,1001.7
"2015-03-26 06:16:00",4.2,3.6,2.6,0.0,1001.7
"2015-03-26 06:17:00",4.2,3.6,2.6,0.0,1001.6
"2015-03-26 06:18:00",4.2,3.6,2.6,0.0,1001.6
"2015-03-26 06:19:00",4.2,3.6,2.8,0.0,1001.6
"2015-03-26 06:20:00",4.2,3.6,2.8,0.0,1001.6
"2015-03-26 06:21:00",4.2,3.6,2.8,0.0,1001.6
"2015-03-26 06:22:00",4.2,3.6,2.8,0.0,1001.5
"2015-03-26 06:23:00",4.2,3.6,2.8,0.0,1001.6
"2015-03-26 06:24:00",4.2,3.6,2.8,0.0,1001.5
"2015-03-26 06:25:00",4.2,3.6,2.8,0.0,1001.6
"2015-03-26 06:26:00",4.3,3.7,2.8,0.0,1001.5
"2015-03-26 06:27:00",4.3,3.7,3.0,0.0,1001.6
"2015-03-26 06:28:00",4.3,3.7,3.0,0.0,1001.5
"2015-03-26 06:29:00",4.3,3.7,3.0,0.0,1001.4
"2015-03-26 06:30:00",4.3,3.7,3.0,0.0,1001.4
"2015-03-26 06:31:00",4.3,3.7,3.0,0.0,1001.5
"2015-03-26 06:32:00",4.3,3.7,3.0,0.0,1001.4
"2015-03-26 06:33:00",4.3,3.7,3.0,0.0,1001.4
"2015-03-26 06:34:00",4.3,3.7,3.0,0.0,1001.4
"2015-03-26 06:35:00",4.3,3.8,3.0,0.0,1001.4
"2015-03-26 06:36:00",4.3,3.8,3.0,0.0,1001.4
"2015-03-26 06:37:00",4.3,3.8,3.0,0.0,1001.4
"2015-03-26 06:38:00",4.3,3.8,3.0,0.0,1001.3
"2015-03-26 06:39:00",4.3,3.8,3.0,0.0,1001.3
"2015-03-26 06:40:00",4.3,3.8,3.0,0.0,1001.3
"2015-03-26 06:41:00",4.4,3.8,3.0,0.0,1001.4
"2015-03-26 06:42:00",4.4,3.8,3.0,0.0,1001.4
"2015-03-26 06:43:00",4.4,3.8,3.2,0.0,1001.4
"2015-03-26 06:44:00",4.4,3.8,3.2,0.0,1001.4
"2015-03-26 06:45:00",4.4,3.8,3.2,0.0,1001.4
"2015-03-26 06:46:00",4.4,3.9,3.2,0.0,1001.3
"2015-03-26 06:47:00",4.4,3.9,3.2,0.0,1001.3
"2015-03-26 06:48:00",4.4,3.9,3.2,0.0,1001.3
"2015-03-26 06:49:00",4.4,3.9,3.2,0.0,1001.3
"2015-03-26 06:50:00",4.4,4.0,3.2,0.0,1001.3
"2015-03-26 06:51:00",4.4,4.0,3.2,0.0,1001.3
"2015-03-26 06:52:00",4.5,4.1,3.2,0.0,1001.2
"2015-03-26 06:53:00",4.5,4.1,3.2,0.0,1001.2
"2015-03-26 06:54:00",4.5,4.1,3.2,0.0,1001.2
"2015-03-26 06:55:00",4.5,4.1,3.2,0.0,1001.2
"2015-03-26 06:56:00",4.5,3.9,3.2,0.0,1001.2
"2015-03-26 06:57:00",4.5,3.9,3.2,0.0,1001.1
"2015-03-26 06:58:00",4.5,4.1,3.2,0.0,1001.1
"2015-03-26 06:59:00",4.6,4.1,3.2,0.0,1001.1
"2015-03-26 07:00:00",4.6,4.1,3.2,0.0,1001.2
"2015-03-26 07:01:00",4.6,4.1,3.2,0.0,1001.1
"2015-03-26 07:02:00",4.6,4.1,3.2,0.0,1001.1
"2015-03-26 07:03:00",4.6,4.1,3.2,0.0,1001.1
"2015-03-26 07:04:00",4.6,4.1,3.2,0.0,1001.1
"2015-03-26 07:05:00",4.6,4.1,3.2,0.0,1001.1
"2015-03-26 07:06:00",4.6,4.1,3.2,0.0,1001.1
"2015-03-26 07:07:00",4.6,4.2,3.2,0.0,1001.1
"2015-03-26 07:08:00",4.6,4.2,3.2,0.0,1001.1
"2015-03-26 07:09:00",4.6,4.2,3.2,0.0,1001.1
"2015-03-26 07:10:00",4.6,4.2,3.2,0.0,1001.1
"2015-03-26 07:11:00",4.6,4.2,3.2,0.0,1001.0
"2015-03-26 07:12:00",4.6,4.2,3.2,0.0,1001.0
"2015-03-26 07:13:00",4.7,4.2,3.2,0.0,1001.0
"2015-03-26 07:14:00",4.7,4.2,3.4,0.0,1001.0
"2015-03-26 07:15:00",4.7,4.2,3.4,0.0,1001.0
"2015-03-26 07:16:00",4.7,4.2,3.4,0.0,1001.0
"2015-03-26 07:17:00",4.7,4.2,3.4,0.0,1001.0
"2015-03-26 07:18:00",4.7,4.2,3.4,0.0,1001.0
"2015-03-26 07:19:00",4.7,4.3,3.4,0.0,1001.0
"2015-03-26 07:20:00",4.7,4.3,3.4,0.0,1001.1
"2015-03-26 07:21:00",4.7,4.3,3.4,0.0,1001.1
"2015-03-26 07:22:00",4.7,4.3,3.4,0.0,1001.0
"2015-03-26 07:23:00",4.7,4.3,3.4,0.0,1001.1
"2015-03-26 07:24:00",4.8,4.3,3.4,0.0,1001.1
"2015-03-26 07:25:00",4.8,4.3,3.4,0.0,1001.0
"2015-03-26 07:26:00",4.8,4.3,3.4,0.0,1001.0
"2015-03-26 07:27:00",4.8,4.3,3.4,0.0,1001.1
"2015-03-26 07:28:00",4.8,4.4,3.4,0.0,1001.1
"2015-03-26 07:29:00",4.8,4.4,3.4,0.0,1001.1
"2015-03-26 07:30:00",4.8,4.4,3.4,0.0,1001.1
"2015-03-26 07:31:00",4.8,4.4,3.4,0.0,1001.1
"2015-03-26 07:32:00",4.8,4.4,3.4,0.0,1001.1
"2015-03-26 07:33:00",4.8,4.4,3.4,0.0,1001.1
"2015-03-26 07:34:00",4.9,4.4,3.4,0.0,1001.0
"2015-03-26 07:35:00",4.9,4.4,3.4,0.0,1001.0
"2015-03-26 07:36:00",4.9,4.5,3.4,0.0,1001.0
"2015-03-26 07:37:00",4.9,4.5,3.4,0.0,1001.0
"2015-03-26 07:38:00",4.9,4.5,3.4,0.0,1001.0
"2015-03-26 07:39:00",4.9,4.5,3.4,0.0,1000.9
"2015-03-26 07:40:00",4.9,4.5,3.4,0.0,1000.9
"2015-03-26 07:41:00",4.9,4.5,3.4,0.0,1000.9
"2015-03-26 07:42:00",4.9,4.5,3.4,0.0,1000.9
"2015-03-26 07:43:00",4.9,4.5,3.4,0.0,1000.8
"2015-03-26 07:44:00",4.9,4.5,3.4,0.0,1000.8
"2015-03-26 07:45:00",4.9,4.5,3.4,0.0,1000.8
"2015-03-26 07:46:00",4.9,4.5,3.4,0.0,1000.8
"2015-03-26 07:47:00",4.9,4.5,3.4,0.0,1000.8
"2015-03-26 07:48:00",5.0,4.5,3.4,0.0,1000.8
"2015-03-26 07:49:00",5.0,4.6,3.4,0.0,1000.8
"2015-03-26 07:50:00",5.0,4.6,3.4,0.0,1000.8
"2015-03-26 07:51:00",5.0,4.6,3.4,0.0,1000.7
"2015-03-26 07:52:00",5.0,4.6,3.4,0.0,1000.8
"2015-03-26 07:53:00",5.1,4.6,3.4,0.0,1000.8
"2015-03-26 07:54:00",5.1,4.6,3.4,0.0,1000.8
"2015-03-26 07:55:00",5.1,4.6,3.4,0.0,1000.7
"2015-03-26 07:56:00",5.1,4.7,3.4,0.0,1000.8
"2015-03-26 07:57:00",5.1,4.7,3.4,0.0,1000.8
"2015-03-26 07:58:00",5.1,4.7,3.4,0.0,1000.8
"2015-03-26 07:59:00",5.1,4.7,3.4,0.0,1000.8
"2015-03-26 08:00:00",5.2,4.7,3.4,0.0,1000.7
"2015-03-26 08:01:00",5.2,4.7,3.4,0.0,1000.7
"2015-03-26 08:02:00",5.2,4.7,3.4,0.0,1000.7
"2015-03-26 08:03:00",5.2,4.7,3.4,0.0,1000.7
"2015-03-26 08:04:00",5.2,4.7,3.4,0.0,1000.6
"2015-03-26 08:05:00",5.2,4.8,3.4,0.0,1000.6
"2015-03-26 08:06:00",5.2,4.8,3.4,0.0,1000.6
"2015-03-26 08:07:00",5.2,4.8,3.4,0.0,1000.6
"2015-03-26 08:08:00",5.3,4.8,3.4,0.0,1000.6
"2015-03-26 08:09:00",5.3,4.8,3.4,0.0,1000.6
"2015-03-26 08:10:00",5.3,4.8,3.4,0.0,1000.6
"2015-03-26 08:11:00",5.3,4.8,3.4,0.0,1000.6
"2015-03-26 08:12:00",5.3,4.9,3.4,0.0,1000.6
"2015-03-26 08:13:00",5.3,4.9,3.4,0.0,1000.6
"2015-03-26 08:14:00",5.3,4.9,3.4,0.0,1000.6
"2015-03-26 08:15:00",5.4,5.0,3.4,0.0,1000.6
"2015-03-26 08:16:00",5.4,5.0,3.4,0.0,1000.6
"2015-03-26 08:17:00",5.4,5.0,3.4,0.0,1000.6
"2015-03-26 08:18:00",5.4,5.0,3.4,0.0,1000.6
"2015-03-26 08:19:00",5.4,5.0,3.4,0.0,1000.5
"2015-03-26 08:20:00",5.4,5.0,3.4,0.0,1000.6
"2015-03-26 08:21:00",5.4,5.0,3.4,0.0,1000.5
"2015-03-26 08:22:00",5.5,5.0,3.4,0.0,1000.4
"2015-03-26 08:23:00",5.5,5.1,3.4,0.0,1000.5
"2015-03-26 08:24:00",5.5,5.1,3.4,0.0,1000.4
"2015-03-26 08:25:00",5.5,5.1,3.4,0.0,1000.4
"2015-03-26 08:26:00",5.5,5.1,3.4,0.0,1000.4
"2015-03-26 08:27:00",5.5,5.1,3.4,0.0,1000.3
"2015-03-26 08:28:00",5.6,5.1,3.4,0.0,1000.3
"2015-03-26 08:29:00",5.6,5.1,3.4,0.0,1000.3
"2015-03-26 08:30:00",5.6,5.1,3.4,0.0,1000.3
"2015-03-26 08:31:00",5.6,5.2,3.4,0.0,1000.3
"2015-03-26 08:32:00",5.6,5.2,3.4,0.0,1000.2
"2015-03-26 08:33:00",5.7,5.4,3.4,0.0,1000.2
"2015-03-26 08:34:00",5.7,5.4,3.4,0.0,1000.2
"2015-03-26 08:35:00",5.7,5.4,3.4,0.0,1000.2
"2015-03-26 08:36:00",5.7,5.4,3.4,0.0,1000.2
"2015-03-26 08:37:00",5.8,5.5,3.4,0.0,1000.3
"2015-03-26 08:38:00",5.8,5.5,3.4,0.0,1000.3
"2015-03-26 08:39:00",5.8,5.5,3.4,0.0,1000.2
"2015-03-26 08:40:00",5.8,5.5,3.4,0.0,1000.2
"2015-03-26 08:41:00",5.8,5.5,3.4,0.0,1000.2
"2015-03-26 08:42:00",5.8,5.5,3.4,0.0,1000.3
"2015-03-26 08:43:00",5.8,5.5,3.4,0.0,1000.3
"2015-03-26 08:44:00",5.8,5.6,3.4,0.0,1000.4
"2015-03-26 08:45:00",5.9,5.6,3.4,0.0,1000.3